Regional Weather Roundup
Issued by NWS Sioux Falls, SD

Home | Current Version | Previous Version | Graphics & Text | Print | Product List | Glossary On
Versions: 1 2 3 4 5 6 7 8 9 10 11 12 13 14 15 16 17 18 19 20 21 22 23 24 25 26 27 28 29 30 31 32 33 34 35 36 37 38 39 40 41 42 43 44 45 46 47 48 49 50
000
ASUS43 KFSD 180702
RWRFSD

WEATHER ROUNDUP FOR SE SOUTH DAKOTA/SW MINNESOTA/NW IOWA
NATIONAL WEATHER SERVICE SIOUX FALLS SD
100 AM CST MON DEC 18 2017

NOTE: "FAIR" INDICATES FEW OR NO CLOUDS BELOW 12,000 FEET WITH NO
SIGNIFICANT WEATHER AND OR OBSTRUCTIONS TO VISIBILITY.


SDZ038>040-050-052>070-180800-
SOUTHEAST SOUTH DAKOTA

CITY           SKY/WX    TMP DP  RH WIND       PRES   REMARKS
BROOKINGS      CLOUDY    32  27  81 S9        29.84F WCI  24
CHAMBERLAIN    CLOUDY    32  30  94 W6        29.83F WCI  26
HURON          CLEAR     31  27  85 MISG      29.82F
MADISON        FAIR      30  30 100 SW8       29.85F WCI  23
MITCHELL       CLEAR     33  26  75 S13       29.85F WCI  24
SIOUX FALLS    CLOUDY    31  27  85 S10       29.87F WCI  22
WINNER         FAIR      32  27  81 SW9       29.84S WCI  24
YANKTON        CLEAR     30  25  81 S9        29.90F WCI  22
$$

MNZ071-072-080-081-089-090-097-098-180800-
SOUTHWEST MINNESOTA

CITY           SKY/WX    TMP DP  RH WIND       PRES   REMARKS
FAIRMONT       CLOUDY    27  25  92 SW7       29.92F WCI  19
JACKSON        CLOUDY    30  27  86 SW8       29.90F FOG     WCI  23
LUVERNE        CLOUDY    28  27  93 S5        29.90F WCI  23
MARSHALL       CLOUDY    33  27  78 S9        29.86F WCI  25
MONTEVIDEO     CLOUDY    30  28  93 SW5       29.85F WCI  25
PIPESTONE      CLOUDY    30  27  86 SW7       29.85F WCI  23
REDWOOD FALLS  CLOUDY    30  27  88 S6        29.88F WCI  24
WINDOM           N/A     28  18  64 SW3       29.89F HAZE
WORTHINGTON    CLOUDY    29  27  92 SW8       29.90F WCI  21
$$

IAZ001>003-012>014-020>022-031-032-NEZ013-014-SDZ071-180800-
NORTHWEST IOWA

CITY           SKY/WX    TMP DP  RH WIND       PRES   REMARKS
DENISON        MOCLDY    23  23 100 SW3       29.97S FOG
ESTHERVILLE    CLOUDY    26  26 100 W6        29.90F FOG     WCI  19
LE MARS        PTCLDY    21  21 100 CALM      29.94F FOG
ORANGE CITY    CLOUDY    28  28 100 SW5       29.92F WCI  23
SHELDON        CLOUDY    27  27 100 SW6       29.90F WCI  20
SIOUX CITY     CLOUDY    17  16  95 S3        29.96S
SPENCER        CLOUDY    25  23  92 W3        29.92F FOG
STORM LAKE     CLEAR     23  21  93 W7        29.92F FOG     WCI  15
$$

ABBREVIATIONS USED IN REMARKS
   TC - TEMPERATURE IN CELSIUS
  WCI - WIND CHILL INDEX
   HX - HEAT INDEX
  VSB - VISIBILITY




USA.gov is the U.S. government's official web portal to all federal, state and local government web resources and services.